STARLINK-11191, 60410

Orbit data source: Space-Track

STARLINK-11191, 60410 is a payload satellite owned by SpaceX/Seattle (US) in LEO that was launched on Sat, 10 Aug 2024 UTC via an FALCON 9 launch vehicle from the Air Force Eastern Test Range (AFETR). Payload-class satellites include a variety of spacecraft equipped with specific instruments for various scientific and technological missions. These include communications satellites like Starlink; space stations such as the ISS; scientific satellites like the Hubble; Earth observation satellites from companies like Planet Labs, Umbra, and HawkEye 360; GPS; miniature CubeSats for education and research; and military/defense satellites.

Loading next visibility...
Identifier
60410, 2024-141N
Orbit
LEO
Country
Flag of USUS
Related business
Manufacturer
SpaceX/Seattle
Mission
Operational Commercial Communications
Bus & Motor
STARLINK V2MD, Unknown motor
Mass
960 kg wet, ~910 kg dry
Launch date (UTC)
2024-08-10 (1 year ago)
Launch vehicle
FALCON 9
Launch site
Air Force Eastern Test Range (AFETR)
Object type
Payload
Rocket body
Debris
Shape & HBR
Box + 2 Pan, 14.5 m
Radar Cross Section
36.964 m², Large (>1 m²)

Expand to show TLE details & history
Last TLE update: 22 hours ago

TLE from 22 hours ago
0 STARLINK-11191
1 60410U 24141N   25260.31435501 -.00000533  00000-0  47092-6 0  9990
2 60410  53.1565 220.8390 0001848  85.3838 274.7391 15.69707815 64516
Epoch: 2025-09-17T07:32Z
TLE epoch observation values (Epoch: 2025-09-17T07:32:40.272Z)
Latitude
-0.00004°
Longitude
111.17909°
Altitude
360.545 km
Speed
7.694 km/s
True Right ascension
14h 43m 21s
True Declination
0° 00' 00"
Sunlit
Object was in daylight at epoch
Visualization orbit readout
Latitude
Unknown
Longitude
Unknown
Altitude
Unknown
Speed
Unknown
Apparent Right ascension
Unknown
Apparent Declination
Unknown
Sunlit
N/A
Visualization observer readout
Local Sidereal Time
21:59:23
Azimuth
Unknown
Elevation
Unknown
Doppler factor
Unknown
Orbital elements
Apogee altitude
361.239 km
Perigee altitude
358.749 km
Semi-major axis
6,738.131 km
Eccentricity
0.00018
Inclination
53.1565°
RAAN
220.839°
Arg. of periapsis
85.3838°
True anomaly
274.718°
Mean anomaly
274.7391°
Eccentric anomaly
274.72855°
Mean motion
3.92404 °/min
Orbital period
91.74 mins
BSTAR
4.7092e-7
Loading maneuver chart data...
Computing Atmospheric mass density...
Loading historical data...
Loading historical data...
Loading historical data...
Loading historical data...
Loading historical data...
Loading historical data...
Loading historical data...

Documentation

Showing up to 5 results
|